sat.trackr.live / text

‹ back to catalog

HULIANWANG DIGUI-38

NORAD 64959 · 2025-159D

PAYLOAD ACTIVE UNKNOWN

§ Identity

Operator
Country
PRC
Launch date
2025-07-27
Launch site
TAISC
Launch vehicle
Mass (kg)
RCS (m²)

External: N2YO · Heavens-Above · Gunter

§ Orbital elements

Epoch: 2026-05-25T04:33:41.748192Z

Period
108.73 min
Inclination
86.4943°
Eccentricity
0.0001894
Mean motion
13.24406199 rev/d
Perigee alt
1,166.5 km
Apogee alt
1,169.4 km
Semi-major
7,546.1 km
B*
9.4263e-5
RAAN
290.2437°
Arg perigee
97.8494°
Mean anomaly
262.2855°
Rev number
4,008

§ Raw data

HULIANWANG DIGUI-381 64959U 25159D   26145.19006653  .00000055  00000+0  94263-4 0  99902 64959  86.4943 290.2437 0001894  97.8494 262.2855 13.24406199 40080

JSON: /api/v1/satellites/64959 · /tle

For live sub-satellite position, see the globe view (requires WebGL).

§ Visibility from observer

Set your observer location to see the next 7 days of passes ≥ 10°. The values pass through the URL so the page stays shareable.

No JS? Fill the form by hand. The geolocation button needs JavaScript.